FREGAT DEB, 45994

Orbit data source: Space-Track

FREGAT DEB, 45994 is space debris in LEO originally from a launch on Mon, 18 Jul 2011 UTC launched from the Tyuratam Missile And Space Complex (TTMTR). Debris objects in space refer to the collection of defunct objects orbiting the Earth. Examples of debris include non-operational satellites, rocket bodies, and fragments generated from explosions, collisions, or faulty payload assembly.

Loading next visibility...
Identifier
45994, 2011-037GV
Orbit
LEO
Country
Flag of CISCIS
Related business
Manufacturer
Lavochkin
Mission
Spacecraft
Bus & Motor
Unknown
Mass
Unknown
Launch date (UTC)
2011-07-18 (14 years ago)
Launch vehicle
Unknown
Launch site
Tyuratam Missile And Space Complex (TTMTR)
Object type
Payload
Rocket body
Debris
Shape & HBR
Unknown shape, 0.1 m
Radar Cross Section
Small (<0.1 m²)

Expand to show TLE details & history
Last TLE update: 4 days ago

TLE from 4 days ago
0 FREGAT DEB
1 45994U 11037GV  25309.73876579  .00000546  00000-0  11930-2 0  9995
2 45994  51.5194  78.1149 1696289 266.5425  74.0800 10.95225350210700
Epoch: 2025-11-05T17:43Z
TLE epoch observation values (Epoch: 2025-11-05T17:43:49.364Z)
Latitude
-0.00002°
Longitude
126.95208°
Altitude
2,029.156 km
Speed
6.951 km/s
True Right ascension
05h 12m 27s
True Declination
0° 00' 00"
Sunlit
Object was in full shadow at epoch
Visualization orbit readout
Latitude
Unknown
Longitude
Unknown
Altitude
Unknown
Speed
Unknown
Apparent Right ascension
Unknown
Apparent Declination
Unknown
Sunlit
N/A
Visualization observer readout
Local Sidereal Time
18:41:18
Azimuth
Unknown
Elevation
Unknown
Doppler factor
Unknown
Orbital elements
Apogee altitude
3,640.375 km
Perigee altitude
734.446 km
Semi-major axis
8,565.547 km
Eccentricity
0.16963
Inclination
51.5194°
RAAN
78.1149°
Arg. of periapsis
266.5425°
True anomaly
93.54023°
Mean anomaly
74.08°
Eccentric anomaly
83.74109°
Mean motion
2.73786 °/min
Orbital period
131.49 mins
BSTAR
0.001193
Loading maneuver chart data...
Computing Atmospheric mass density...
Loading historical data...
Loading historical data...
Loading historical data...
Loading historical data...
Loading historical data...
Loading historical data...
Loading historical data...

Documentation

Showing up to 5 results
|